Flag for Hungary Weather past 2 weeks in Budapest, Hungary

Now
66 °F

Sunny.


Feels Like: 66 °F
Forecast: 49 / 64 °F
Wind: 6 mph from East

Location: Ferenc Liszt International Airport


UV Index: 0 (Low)

Visibility: 10 mi


Pressure: 29.77 "Hg

Humidity: 52%

Dew point: 48 °F

Location of BudapestLocation

Historic Weather in Budapest

°F

Budapest temperature yesterday

Maximum temperature yesterday: 61 °F (at 12:00 PM)
Minimum temperature yesterday: 45 °F (at 10:30 PM)
Average temperature yesterday: 54 °F

Past Weeks' High & Low Weather Summary

 TemperatureHumidityPressure
High72 °F (Apr 8, 3:30 PM)100% (Apr 7, 4:00 AM)30.12 "Hg (Apr 7, 4:00 AM)
Low32 °F (Apr 12, 5:30 AM)32% (Apr 13, 2:30 PM)29.68 "Hg (Apr 18, 5:30 PM)
Average52 °F62%29.95 "Hg
* Reported Apr 6 5:00 PM — Apr 21 5:30 PM, Budapest, Weather by CustomWeather, © 2014

Note: Actual official high and low records may vary slightly from our data, if they occured in-between our weather recording intervals... More about our weather records

Advertising

Historic Weather Conditions — Data for Previous 24 hours

 ConditionsComfort  
Time TempWeatherWind HumidityBarometerVisibility
5:30 PM
Apr 21
64 °FSunny.7 mph56%29.80 "Hg10 mi
5:00 PM66 °FSprinkles. Scattered clouds.16 mph49%29.80 "HgN/A
4:30 PM66 °FScattered showers. Scattered clouds.5 mph60%29.80 "HgN/A
4:00 PM64 °FSprinkles. Partly sunny.13 mph56%29.80 "HgN/A
3:30 PM68 °FScattered clouds.14 mph43%29.80 "HgN/A
3:00 PM68 °FScattered clouds.15 mph46%29.80 "HgN/A
2:30 PM68 °FPassing clouds.14 mph43%29.80 "HgN/A
2:00 PM66 °FSunny.14 mph46%29.80 "Hg10 mi
1:30 PM66 °FPartly sunny.13 mph49%29.80 "HgN/A
1:00 PM66 °FPartly sunny.13 mph52%29.80 "HgN/A
12:30 PM66 °FPartly sunny.14 mph52%29.83 "HgN/A
12:00 PM66 °FScattered clouds.12 mph56%29.83 "HgN/A
11:30 AM63 °FScattered clouds.10 mph64%29.83 "HgN/A
11:00 AM59 °FScattered clouds.10 mph72%29.86 "HgN/A
10:30 AM55 °FScattered clouds.9 mph77%29.86 "Hg5 mi
10:00 AM54 °FBroken clouds.9 mph88%29.86 "Hg5 mi
9:30 AM52 °FBroken clouds.9 mph88%29.86 "Hg5 mi
9:00 AM52 °FPartly sunny.9 mph88%29.86 "Hg5 mi
8:30 AM48 °FPartly sunny.9 mph100%29.86 "Hg4 mi
8:00 AM48 °FBroken clouds.12 mph94%29.86 "Hg4 mi
7:30 AM50 °FPassing clouds.7 mph94%29.86 "HgN/A
7:00 AM48 °FPassing clouds.6 mph94%29.86 "HgN/A
6:30 AM46 °FPassing clouds.5 mph100%29.86 "HgN/A
6:00 AM46 °FPassing clouds.5 mph100%29.86 "HgN/A
5:30 AM46 °FPassing clouds.6 mph100%29.86 "HgN/A
5:00 AM46 °FClear.7 mph100%29.86 "Hg10 mi
4:30 AM45 °FClear.2 mph93%29.86 "Hg10 mi
4:00 AM46 °FClear.3 mph93%29.86 "Hg10 mi
3:30 AM43 °FPassing clouds.5 mph100%29.86 "HgN/A
3:00 AM45 °FClear.7 mph93%29.86 "Hg10 mi
2:30 AM45 °FClear.6 mph93%29.86 "Hg10 mi
2:00 AM45 °FClear.2 mph93%29.86 "Hg10 mi
1:30 AM45 °FClear.2 mph93%29.86 "Hg10 mi
1:00 AM43 °FClear.2 mph93%29.89 "Hg10 mi
12:30 AM43 °FClear.5 mph93%29.86 "Hg10 mi
12:00 AM46 °FClear.3 mph87%29.89 "Hg10 mi
11:00 PM
Apr 20
45 °FClear.2 mph87%29.86 "Hg10 mi
10:30 PM45 °FClear.3 mph87%29.86 "Hg10 mi
10:00 PM48 °FClear.2 mph82%29.86 "Hg10 mi
9:30 PM48 °FClear.5 mph82%29.86 "Hg10 mi
9:00 PM54 °FClear.2 mph72%29.86 "Hg10 mi
8:30 PM52 °FSunny.2 mph77%29.83 "Hg10 mi
8:00 PM54 °FSunny.No wind67%29.83 "Hg10 mi
7:30 PM57 °FSunny.6 mph59%29.83 "Hg10 mi
7:00 PM55 °FSunny.6 mph67%29.80 "Hg10 mi
6:30 PM57 °FScattered showers. Partly sunny.9 mph63%29.80 "HgN/A
6:00 PM59 °FSprinkles. Scattered clouds.13 mph55%29.83 "HgN/A
Weather by CustomWeather, © 2014

See weather overview